Location: Unspecified
(48.7670°N, 0.0000°E)
Time: 08:42:08
(UTC+00:00)

Altair - Pass Details

Date: 30 June 2019
Orbit: 1501 x 1683 km, 47.2° (Epoch: 17 July)

Event Time Altitude Azimuth Distance (km) Brightness Sun altitude
Rises 01:51:36 0° 286° (WNW) 4,848 10.0 -14.1°
Reaches altitude 10° 01:56:37 10° 265° (W) 3,891 9.3 -13.7°
Maximum altitude 02:01:23 15° 236° (SW) 3,548 8.9 -13.4°
Enters shadow 02:02:50 14° 226° (SW) 3,588 8.8 -13.3°
Drops below altitude 10° 02:06:12 10° 206° (SSW) 3,926 - -13.0°
Sets 02:11:22 0° 185° (S) 4,920 - -12.6°
